FENGYUN 1C DEB, 29894

Orbit data source: Space-Track

FENGYUN 1C DEB, 29894 is space debris in SSO originally from a launch on Mon, 10 May 1999 UTC launched from the Taiyaun Space Center, China (TSC). Fengyun 1C debris stems from the Chinese weather satellite Fengyun-1C, which was intentionally destroyed by a Chinese anti-satellite missile in 2007. This event dramatically increased the amount of space debris, with thousands of trackable fragments posing hazards to satellites and human spaceflight. The Fengyun 1C debris cloud has become a focal point in discussions about space sustainability and the need for international regulations to prevent the creation of new debris.

Loading next visibility...
Identifier
29894, 1999-025GQ
Orbit
SSO
Country
Flag of CNCN / PRC
Related business
Manufacturer
Unknown
Mission
Spacecraft
Bus & Motor
Unknown
Mass
Unknown
Launch date (UTC)
1999-05-10 (27 years ago)
Launch vehicle
Unknown
Launch site
Taiyaun Space Center, China (TSC)
Object type
Payload
Rocket body
Debris
Shape & HBR
Unknown shape, 0.1 m
Radar Cross Section
Medium (>0.1 m² and <1 m²)

Expand to show TLE details & history
Last TLE update: 10 hours ago

TLE from 10 hours ago
0 FENGYUN 1C DEB
1 29894U 99025GQ  26208.44806521  .00000538  00000-0  49323-3 0  9995
2 29894  99.4617 268.4841 0169281 166.2130 323.3060 13.81240705982062
Epoch: 2026-07-27T10:45Z
TLE epoch observation values (Epoch: 2026-07-27T10:45:12.834Z)
Latitude
50.78534°
Longitude
-6.2294°
Altitude
868.701 km
Speed
7.473 km/s
True Right ascension
06h 40m 49s
True Declination
50° 37' 10"
Sunlit
Object was in daylight at epoch
Visualization orbit readout
Latitude
Unknown
Longitude
Unknown
Altitude
Unknown
Speed
Unknown
Apparent Right ascension
Unknown
Apparent Declination
Unknown
Sunlit
N/A
Visualization observer readout
Local Sidereal Time
10:06:15
Azimuth
Unknown
Elevation
Unknown
Doppler factor
Unknown
Orbital elements
Apogee altitude
1,080.901 km
Perigee altitude
832.57 km
Semi-major axis
7,334.873 km
Eccentricity
0.01693
Inclination
99.4617°
RAAN
268.4841°
Arg. of periapsis
166.213°
True anomaly
322.12697°
Mean anomaly
323.306°
Eccentric anomaly
322.7185°
Mean motion
3.45505 °/min
Orbital period
104.2 mins
BSTAR
0.00049323
Loading maneuver chart data...
Computing Atmospheric mass density...

Documentation

Showing up to 5 results
|